This demonstration page uses our WeatherBlox Daily Observations layout. Learn more.

Left ArrowRight Arrow

Hourly Observations for March 18, 2022

Temp ( °F °C ) Dew Point ( °F °C ) Humidity (%) Winds ( mph kmh ) Pressure ( in mb ) Visibility ( mi km ) Precip ( " mm )
12:59 am 00:59 Cloudy 58 14.4 54 12.2 87 87 NW 6 9 30.01 1016 7 11 0.00 0.00
1:45 am 01:45 Cloudy 58 14.4 55 12.8 90 90 W 5 7 30.01 1016 8 13 0.00 0.00
1:59 am 01:59 Cloudy 58 14.4 55 12.8 90 90 W 5 7 30.01 1016 8 13 0.00 0.00
2:15 am 02:15 Cloudy 58 14.4 54 12.2 87 87 W 7 11 30.03 1017 7 11 0.00 0.00
2:59 am 02:59 Cloudy 58 14.4 55 12.8 90 90 WNW 5 7 30.02 1017 9 14 0.00 0.00
3:20 am 03:20 Cloudy 59 15 55 12.8 87 87 W 6 9 30.03 1017 10 16 0.00 0.00
3:59 am 03:59 Cloudy 58 14.4 54 12.2 87 87 W 5 7 30.03 1017 8 13 0.00 0.00
4:59 am 04:59 Cloudy 58 14.4 54 12.2 87 87 WNW 5 7 30.03 1017 7 11 0.00 0.00
5:59 am 05:59 Mostly Cloudy with Mist and Fog 56 13.3 53 11.7 90 90 SW 3 6 30.05 1018 4 6 0.00 0.00
6:59 am 06:59 Mostly Cloudy with Fog 56 13.3 54 12.2 93 93 SSW 3 6 30.07 1018 0 0 0.00 0.00
7:30 am 07:30 Mostly Cloudy with Fog 56 13.3 54 12.2 93 93 Calm 30.07 1018 N/A 0.00 0.00
7:59 am 07:59 Mostly Cloudy with Fog 56 13.3 54 12.2 93 93 SSW 3 6 30.07 1018 N/A 0.00 0.00
8:24 am 08:24 Mostly Cloudy with Fog 56 13.3 54 12.2 93 93 S 3 6 30.08 1019 0 0 0.00 0.00
8:59 am 08:59 Mostly Cloudy with Fog 57 13.9 56 13.3 96 96 S 3 6 30.09 1019 0 0 0.00 0.00
9:10 am 09:10 Cloudy with Mist and Fog 58 14.4 56 13.3 93 93 SSW 3 6 30.10 1019 1 1 0.00 0.00
9:15 am 09:15 Cloudy with Mist and Fog 57 13.9 55 12.8 93 93 SSW 3 6 30.10 1019 1 2 0.00 0.00
9:18 am 09:18 Mostly Cloudy with Mist and Fog 57 13.9 56 13.3 96 96 SW 3 6 30.10 1019 2 3 0.00 0.00
9:31 am 09:31 Mostly Cloudy with Mist and Fog 59 15 56 13.3 90 90 SW 5 7 30.12 1020 4 6 0.00 0.00
9:44 am 09:44 Partly Cloudy with Mist and Fog 59 15 57 13.9 93 93 VRB 5 7 30.12 1020 5 8 0.00 0.00
9:59 am 09:59 Partly Cloudy with Mist and Fog 61 16.1 57 13.9 87 87 SW 6 9 30.11 1020 6 10 0.00 0.00
10:59 am 10:59 Mostly Sunny 67 19.4 57 13.9 71 71 SE 5 7 30.10 1019 10 16 0.00 0.00
11:59 am 11:59 Sunny 70 21.1 57 13.9 64 64 Calm 30.10 1019 10 16 0.00 0.00
12:59 pm 12:59 Mostly Sunny 73 22.8 57 13.9 57 57 NNE 5 7 30.07 1018 10 16 0.00 0.00
1:59 pm 13:59 Mostly Sunny 72 22.2 56 13.3 57 57 E 8 13 30.05 1018 10 16 0.00 0.00
2:59 pm 14:59 Mostly Cloudy 73 22.8 56 13.3 55 55 ENE 9 15 30.02 1017 10 16 0.00 0.00
3:59 pm 15:59 Cloudy 72 22.2 56 13.3 57 57 ENE 8 13 30.01 1016 10 16 0.00 0.00
4:59 pm 16:59 Cloudy 73 22.8 57 13.9 57 57 SE 9 15 30.00 1016 10 16 0.00 0.00
5:59 pm 17:59 Cloudy 69 20.6 55 12.8 61 61 SSE 12 19 30.02 1017 10 16 0.00 0.00
6:59 pm 18:59 Mostly Cloudy 66 18.9 55 12.8 68 68 SE 9 15 30.02 1017 10 16 0.00 0.00
7:59 pm 19:59 Cloudy 65 18.3 56 13.3 73 73 SSE 10 17 30.02 1017 10 16 0.00 0.00
8:59 pm 20:59 Mostly Cloudy 64 17.8 56 13.3 75 75 SSE 9 15 29.99 1016 10 16 0.00 0.00
9:59 pm 21:59 Cloudy 65 18.3 56 13.3 73 73 SSE 14 22 29.93 1014 10 16 0.00 0.00
10:59 pm 22:59 Mostly Cloudy 66 18.9 55 12.8 68 68 SW 8 13 29.95 1014 10 16 0.00 0.00
11:59 pm 23:59 Mostly Cloudy 65 18.3 55 12.8 70 70 S 10 17 29.96 1015 10 16 0.00 0.00

Powered by AerisWeather